Regional Weather Roundup
Issued by NWS Jackson, KY

Home | Current Version | Previous Version | Graphics & Text | Print | Product List | Glossary On
Versions: 1 2 3 4 5 6 7 8 9 10 11 12 13 14 15 16 17 18 19 20 21 22 23 24 25 26 27 28 29 30 31 32 33 34 35 36 37 38 39 40 41 42 43 44 45 46 47 48 49 50
000
ASUS43 KJKL 250210
RWRJKL

EAST KENTUCKY HOURLY WEATHER ROUNDUP
NATIONAL WEATHER SERVICE JACKSON KY
1000 PM EDT MON JUL 24 2017

NOTE: "FAIR" INDICATES FEW OR NO CLOUDS BELOW 12,000 FEET WITH
NO SIGNIFICANT WEATHER AND/OR OBSTRUCTIONS TO VISIBILITY.

* THESE REPORTS ARE NOT UNDER NWS QUALITY CONTROL AND MAY NOT
  REPORT WEATHER SUCH AS PRECIPITATION AND FOG.

KYZ079-080-083-085-087-088-110-112-115-119-120-250300
...EASTERN KENTUCKY...

CITY           SKY/WX    TMP DP  RH WIND       PRES   REMARKS
JACKSON        FOG       71  70  96 CALM      30.03R VSB 1/4
LONDON         CLOUDY    76  67  73 CALM      30.03R
SOMERSET*      CLOUDY    75  66  73 E3        30.03R
MONTICELLO*    PTCLDY    73  72  96 N10       30.03R
WILLIAMSBURG*  CLOUDY    75  72  88 CALM      30.02R
MIDDLESBORO*   PTCLDY    75  71  86 CALM      30.03R
PIKE CO APT*     N/A     72  72 100 SW3       30.04R
BIG SANDY APT* CLOUDY    73  73 100 CALM      30.03R
MOREHEAD APT*  CLOUDY    75  68  78 N3        30.03R
$$

KYZ035-036-041-042-044-050-067-078-099-250300
...CENTRAL KENTUCKY...

CITY           SKY/WX    TMP DP  RH WIND       PRES   REMARKS
MT STERLING*   CLOUDY    73  72  94 CALM      30.03R
FLEMING/MASON* CLEAR     75  66  74 NE7       30.04R
DANVILLE*      PTCLDY    72  72 100 CALM      30.03R
LEXINGTON      CLOUDY    77  72  84 CALM      30.02R
FRANKFORT      MOCLDY    81  65  58 N3        30.00R
LOUISVILLE     PTCLDY    82  65  56 NE6       30.00R
LEBANON*         N/A     77  73  88 CALM      30.01R
GLASGOW*       PTCLDY    79  73  81 CALM      29.99R
BOWLING GREEN  CLEAR     85  73  67 W5        29.98R HX  91
$$

KYZ091>093-OHZ055-061-077-WVZ005-015-034-035-042-250300
...SOUTHERN OHIO/WEST VIRGINIA...

CITY           SKY/WX    TMP DP  RH WIND       PRES   REMARKS
COVINGTON      PTCLDY    74  65  73 N8        30.04R
COLUMBUS       PTCLDY    67  60  78 N8        30.04R
DAYTON         CLEAR     66  57  72 N8        30.08R
WILMINGTON     CLEAR     66  62  87 NE7       30.05R
HUNTINGTON     CLOUDY    77  66  68 N6        30.00R
CHARLESTON     CLOUDY    76  68  76 CALM      30.00R
PINEVILLE*     MOCLDY    70  68  93 MISG      30.10R
BECKLEY        PTCLDY    69  66  90 SW3       30.08R
BLUEFIELD      PTCLDY    70  63  78 W5        30.10R
LOGAN CO APT*    N/A     73  70  88 CALM      30.04R
$$

VAZ002-007-008-TNZ017-027-036-066-071-250300
...SOUTHWEST VIRGINIA/EAST TENNESSEE...

CITY           SKY/WX    TMP DP  RH WIND       PRES   REMARKS
WISE*          MOCLDY    72  64  78 SW7       30.13R
JONESVILLE*    LGT RAIN  77  70  78 N5        30.06R
ABINGDON*      DRIZZLE   74  69  83 N7        30.08R
BRISTOL        CLOUDY    76  67  73 CALM      30.04R
MORRISTOWN*    CLEAR     77  70  78 CALM      30.02R
SEVIERVILLE*   CLEAR     75  70  83 CALM      30.00R
KNOXVILLE      CLOUDY    82  66  58 SW3       29.99R
LAFOLLETTE*    CLEAR     73  72  94 CALM      30.05R
OAK RIDGE      PTCLDY    79  70  74 CALM      30.02R
CROSSVILLE     PTCLDY    72  68  87 CALM      30.07R
NASHVILLE      CLOUDY    86  74  67 E3        29.99R HX  94
$$

...KEY TO REMARKS...
VSB - VISIBILITY IN MILES
WCI - WIND CHILL INDEX
HX  - HEAT INDEX

$$



USA.gov is the U.S. government's official web portal to all federal, state and local government web resources and services.